カタログに戻る

SL-14 R/B

運用中PO
NORAD 16987·ROCKET BODY·🇷🇺 Russia

打ち上げ Sep 30, 1986 から Plesetsk Cosmodrome

Loading…

次のパス (今後24時間)

TLE

最新Source: Space-Track

元期: Sep 14, 2026, 22:06 UTC

1 16987U 86074B   26257.92093624  .00000346  00000-0  37224-4 0  9998
2 16987  82.5170  24.4877 0015964 286.3456 213.3662 14.85497587138055

AllMySatでSL-14 R/Bをリアルタイム追跡

Download on the App Store